M. Luther — WDC7372 — position and weather

sailwx.info

Track history (hours):
 
Tides and Currents Weather Stations Pressure Air Temp Water Temp Dewpoint Dewpoint Depression Visibility Wind Speed Wind Dir Waves Ship Positions

M. Luther

More information available from US FCC via Universal Licensing System and Coast Guard Vessel Documentation Center.

Last reported at 2014-Jul-24 03:07 UTC. Time now 2014-Jul-25 20:41 UTC.
Position N 47°33' W 122°21'.

Length 28 m; draft 4.1 m.

Type: Tug. MMSI: 367070410.

Date/timePositionNaut miles runAvg speedWind from/ knotsBaromVisibWave heightAir tempDewpointWater temp
2014-Jul-24 03:07N 47°33' W 122°21'0 0.0
2014-Jul-24 03:03N 47°33' W 122°21'0 0.0
2014-Jul-24 02:33N 47°33' W 122°21'0 0.0
2014-Jul-24 02:33N 47°33' W 122°21'0 0.0
2014-Jul-24 01:13N 47°33' W 122°21'0 0.0
2014-Jul-24 01:11N 47°33' W 122°21'0 0.3
2014-Jul-24 00:33N 47°33' W 122°21'0 7.7
2014-Jul-24 00:30N 47°34' W 122°21'3 3.3
2014-Jul-23 23:33N 47°36' W 122°24'0 4.3
2014-Jul-23 23:30N 47°37' W 122°24'6 6.0
2014-Jul-23 22:32N 47°42' W 122°28'4 7.3
2014-Jul-23 22:02N 47°45' W 122°27'4 7.3
2014-Jul-23 21:33N 47°49' W 122°28'0 7.8
2014-Jul-23 21:33N 47°49' W 122°28'8 7.8
2014-Jul-23 20:33N 47°56' W 122°32'1 9.9
2014-Jul-23 20:28N 47°57' W 122°33'8 8.9
2014-Jul-23 19:32N 48°04' W 122°39'7 9.4
2014-Jul-23 18:47N 48°10' W 122°45'3 9.2
2014-Jul-23 18:30N 48°11' W 122°48'1 8.5
2014-Jul-23 18:26N 48°12' W 122°48'8 8.6
2014-Jul-23 17:31N 48°20' W 122°47'9 9.5
2014-Jul-23 16:33N 48°29' W 122°45'1010.2
2014-Jul-23 15:33N 48°39' W 122°44'8 8.4
2014-Jul-23 14:33N 48°46' W 122°51'9 8.7
2014-Jul-23 13:33N 48°51' W 123°02'9 8.8
2014-Jul-23 12:33N 48°56' W 123°12'8 8.5
2014-Jul-23 11:34N 49°03' W 123°21'7 7.1
2014-Jul-23 10:33N 49°08' W 123°14'7 7.1
2014-Jul-23 09:33N 49°09' W 123°03'2 1.9
2014-Jul-23 08:33N 49°09' W 123°00'0 0.0
2014-Jul-23 07:31N 49°09' W 123°00'0 0.0
2014-Jul-23 06:31N 49°09' W 123°00'0 0.0
2014-Jul-23 05:31N 49°09' W 123°00'0 0.0
2014-Jul-23 04:31N 49°09' W 123°00'0 0.0
2014-Jul-23 03:31N 49°09' W 123°00'0 0.0
2014-Jul-23 02:31N 49°09' W 123°00'0 0.0
2014-Jul-23 01:31N 49°09' W 123°00'0 0.0
2014-Jul-23 00:31N 49°09' W 123°00'0 0.0
2014-Jul-22 23:25N 49°09' W 123°00'0 0.0
2014-Jul-22 22:31N 49°09' W 123°00'0 0.0
2014-Jul-22 21:31N 49°09' W 123°00'0 0.0
2014-Jul-22 20:34N 49°09' W 123°00'0 0.0
2014-Jul-22 19:30N 49°09' W 123°00'0 0.0
2014-Jul-22 18:30N 49°09' W 123°00'0 0.0
2014-Jul-22 17:33N 49°09' W 123°00'0 0.0
2014-Jul-22 16:33N 49°09' W 123°00'0 0.0
2014-Jul-22 15:33N 49°09' W 123°00'0 0.0
2014-Jul-22 14:33N 49°09' W 123°00'0 0.0
2014-Jul-22 13:27N 49°09' W 123°00'0 0.0
2014-Jul-22 12:33N 49°09' W 123°00'0 0.0
2014-Jul-22 11:33N 49°09' W 123°00'0 0.0
2014-Jul-22 10:33N 49°09' W 123°00'0 0.0
2014-Jul-22 09:33N 49°09' W 123°00'0 0.0
2014-Jul-22 08:33N 49°09' W 123°00'0 0.0
2014-Jul-22 07:33N 49°09' W 123°00'0 0.0
2014-Jul-22 06:33N 49°09' W 123°00'0 0.0
2014-Jul-22 05:33N 49°09' W 123°00'0 0.0
2014-Jul-22 04:33N 49°09' W 123°00'0 0.0
2014-Jul-22 03:33N 49°09' W 123°00'0 0.0
2014-Jul-22 02:33N 49°09' W 123°00'0 0.0
2014-Jul-22 01:33N 49°09' W 123°00'0 0.0
2014-Jul-22 00:33N 49°09' W 123°00'0 0.0
2014-Jul-21 23:33N 49°09' W 123°00'0 0.0
2014-Jul-21 22:33N 49°09' W 123°00'0 0.0
2014-Jul-21 21:33N 49°09' W 123°00'0 0.0
2014-Jul-21 20:33N 49°09' W 123°00'0 0.0
2014-Jul-21 20:18N 49°09' W 123°00'0 0.0
2014-Jul-21 19:33N 49°09' W 123°00'0 0.0
2014-Jul-21 18:30N 49°09' W 123°00'0 0.0
2014-Jul-21 17:27N 49°09' W 123°00'0 0.0
2014-Jul-21 16:33N 49°09' W 123°00'0 0.0
2014-Jul-21 15:33N 49°09' W 123°00'0 0.0
2014-Jul-21 14:33N 49°09' W 123°00'0 0.0
2014-Jul-21 13:33N 49°09' W 123°00'0 0.0
2014-Jul-21 12:33N 49°09' W 123°00'0 0.0
2014-Jul-21 11:33N 49°09' W 123°00'0 0.0
2014-Jul-21 10:30N 49°09' W 123°00'0 0.0
2014-Jul-21 09:33N 49°09' W 123°00'0 0.0
2014-Jul-21 08:29N 49°09' W 123°00'0 0.0
2014-Jul-21 07:32N 49°09' W 123°00'0 0.0
2014-Jul-21 06:32N 49°09' W 123°00'0 0.0
2014-Jul-21 05:32N 49°09' W 123°00'0 0.0
2014-Jul-21 04:32N 49°09' W 123°00'0 0.0
2014-Jul-21 03:32N 49°09' W 123°00'0 0.0
2014-Jul-21 02:32N 49°09' W 123°00'0 0.0
2014-Jul-21 01:32N 49°09' W 123°00'0 0.0
2014-Jul-21 00:32N 49°09' W 123°00'0 0.0
2014-Jul-20 23:32N 49°09' W 123°00'0 0.0
2014-Jul-20 22:32N 49°09' W 123°00'0 0.0
2014-Jul-20 21:27N 49°09' W 123°00'0 0.0
2014-Jul-20 20:33N 49°09' W 123°00'0 0.0
2014-Jul-20 19:33N 49°09' W 123°00'0 0.2
2014-Jul-20 18:33N 49°09' W 123°01'5 5.4
2014-Jul-20 17:33N 49°06' W 123°08'5 5.4
2014-Jul-20 16:33N 49°07' W 123°16'4 4.2
2014-Jul-20 15:33N 49°03' W 123°18'7 7.4
2014-Jul-20 14:33N 48°58' W 123°10'8 8.1
2014-Jul-20 13:33N 48°53' W 123°00'8 7.6
2014-Jul-20 12:33N 48°48' W 122°52'7 7.0
2014-Jul-20 11:33N 48°43' W 122°44'5 5.5
2014-Jul-20 10:33N 48°38' W 122°44'5 4.8
2014-Jul-20 09:33N 48°33' W 122°45'6 6.4
2014-Jul-20 08:33N 48°27' W 122°44'8 7.4
2014-Jul-20 07:32N 48°19' W 122°46'14 5.7
2014-Jul-20 05:08N 48°06' W 122°39'4 6.9
2014-Jul-20 04:33N 48°02' W 122°37'4 6.6
2014-Jul-20 03:57N 47°59' W 122°35'3 7.2
2014-Jul-20 03:33N 47°57' W 122°32'2 7.8
2014-Jul-20 03:22N 47°56' W 122°30'6 7.6
2014-Jul-20 02:33N 47°50' W 122°27'0 7.3
2014-Jul-20 02:32N 47°50' W 122°27'8 8.1
2014-Jul-20 01:33N 47°42' W 122°26'0 7.2
2014-Jul-20 01:32N 47°42' W 122°26'7 6.9
2014-Jul-20 00:33N 47°36' W 122°22'0 3.7
2014-Jul-20 00:32N 47°36' W 122°22'3 2.7
2014-Jul-19 23:33N 47°33' W 122°21'0 0.0
2014-Jul-19 23:32N 47°33' W 122°21'  
2014-Jul-17 17:59N 47°33' W 122°21'2 4.5
2014-Jul-17 17:33N 47°35' W 122°22'0 5.1
2014-Jul-17 17:30N 47°35' W 122°21'0 0.1
2014-Jul-17 16:30N 47°35' W 122°21'0 0.0
2014-Jul-17 16:30N 47°35' W 122°21'2 2.1
2014-Jul-17 15:34N 47°33' W 122°21'0 1.1
2014-Jul-17 15:29N 47°33' W 122°21'0 0.0
2014-Jul-17 14:20N 47°33' W 122°21'0 0.0
2014-Jul-17 13:19N 47°33' W 122°21'0 0.0
2014-Jul-17 11:25N 47°33' W 122°21'0 0.0
2014-Jul-17 10:25N 47°33' W 122°21'0 0.0
2014-Jul-17 09:44N 47°33' W 122°21'0 0.0
2014-Jul-17 09:32N 47°33' W 122°21'0 0.0
2014-Jul-17 09:29N 47°33' W 122°21'0 0.0
2014-Jul-17 08:31N 47°33' W 122°21'0 0.0
2014-Jul-17 08:13N 47°33' W 122°21'0 0.0
2014-Jul-17 07:31N 47°33' W 122°21'0 0.0
2014-Jul-17 06:58N 47°33' W 122°21'0 0.0
2014-Jul-17 06:31N 47°33' W 122°21'0 0.0
2014-Jul-17 06:28N 47°33' W 122°21'0 0.0
2014-Jul-17 05:43N 47°33' W 122°21'0 0.0
2014-Jul-17 05:31N 47°33' W 122°21'0 0.0
2014-Jul-17 04:31N 47°33' W 122°21'0 0.0
2014-Jul-17 04:13N 47°33' W 122°21'0 0.0
2014-Jul-17 03:31N 47°33' W 122°21'0 0.0
2014-Jul-17 03:28N 47°33' W 122°21'0 0.0
2014-Jul-17 02:31N 47°33' W 122°21'0 0.0
2014-Jul-17 02:28N 47°33' W 122°21'0 0.0
2014-Jul-17 01:31N 47°33' W 122°21'0 0.0
2014-Jul-17 01:28N 47°33' W 122°21'0 0.0
2014-Jul-17 00:28N 47°33' W 122°21'0 0.0
2014-Jul-17 00:28N 47°33' W 122°21'0 0.0
2014-Jul-16 23:22N 47°33' W 122°21'0 0.0
2014-Jul-16 23:13N 47°33' W 122°21'0 0.0
2014-Jul-16 22:31N 47°33' W 122°21'0 0.0
2014-Jul-16 22:28N 47°33' W 122°21'0 0.0
2014-Jul-16 21:28N 47°33' W 122°21'0 0.0
2014-Jul-16 21:28N 47°33' W 122°21'0 0.0
2014-Jul-16 20:31N 47°33' W 122°21'0 0.0
2014-Jul-16 20:08N 47°33' W 122°21'0 0.1
2014-Jul-16 19:28N 47°33' W 122°21'0 0.0
2014-Jul-16 19:12N 47°33' W 122°21'0 0.0
2014-Jul-16 18:32N 47°33' W 122°21'0 0.0
2014-Jul-16 18:26N 47°33' W 122°21'0 0.0
2014-Jul-16 17:26N 47°33' W 122°21'0 0.0
2014-Jul-16 17:12N 47°33' W 122°21'0 0.0
2014-Jul-16 16:33N 47°33' W 122°21'0 0.0
2014-Jul-16 16:23N 47°33' W 122°21'0 0.0
2014-Jul-16 15:33N 47°33' W 122°21'0 0.0
2014-Jul-16 15:32N 47°33' W 122°21'0 0.0
2014-Jul-16 14:33N 47°33' W 122°21'0 0.5
2014-Jul-16 14:32N 47°33' W 122°21'0 0.0
2014-Jul-16 13:33N 47°33' W 122°21'0 0.0
2014-Jul-16 13:32N 47°33' W 122°21'0 0.0
2014-Jul-16 12:33N 47°33' W 122°21'0 0.0
2014-Jul-16 12:32N 47°33' W 122°21'0 0.0
2014-Jul-16 11:33N 47°33' W 122°21'0 0.0
2014-Jul-16 11:32N 47°33' W 122°21'0 0.0
2014-Jul-16 10:33N 47°33' W 122°21'0 0.0
2014-Jul-16 10:32N 47°33' W 122°21'0 0.0
2014-Jul-16 09:33N 47°33' W 122°21'0 0.0
2014-Jul-16 09:32N 47°33' W 122°21'0 0.0
2014-Jul-16 08:33N 47°33' W 122°21'0 0.3
2014-Jul-16 08:26N 47°33' W 122°21'0 0.0
2014-Jul-16 07:33N 47°33' W 122°21'0 0.0
2014-Jul-16 07:32N 47°33' W 122°21'0 0.0
2014-Jul-16 06:33N 47°33' W 122°21'0 0.0
2014-Jul-16 06:32N 47°33' W 122°21'0 0.0
2014-Jul-16 05:57N 47°33' W 122°21'0 0.0
2014-Jul-16 05:33N 47°33' W 122°21'0 0.0
2014-Jul-16 04:33N 47°33' W 122°21'0 0.0
2014-Jul-16 04:31N 47°33' W 122°21'0 0.0
2014-Jul-16 03:33N 47°33' W 122°21'0 0.0
2014-Jul-16 03:31N 47°33' W 122°21'0 0.0
2014-Jul-16 02:33N 47°33' W 122°21'0 0.1
2014-Jul-16 02:31N 47°33' W 122°21'0 0.0
2014-Jul-16 01:33N 47°33' W 122°21'0 0.0
2014-Jul-16 01:31N 47°33' W 122°21'0 0.0
2014-Jul-16 00:33N 47°33' W 122°21'0 0.0
2014-Jul-16 00:31N 47°33' W 122°21'0 0.0
2014-Jul-15 23:32N 47°33' W 122°21'0 0.0
2014-Jul-15 23:30N 47°33' W 122°21'0 0.0
2014-Jul-15 21:32N 47°33' W 122°21'0 0.0
2014-Jul-15 20:32N 47°33' W 122°21'0 0.0
2014-Jul-15 20:31N 47°33' W 122°21'0 0.0
2014-Jul-15 19:33N 47°33' W 122°21'0 0.0
2014-Jul-15 18:31N 47°33' W 122°21'0 0.0
2014-Jul-15 18:10N 47°33' W 122°21'0 0.0
2014-Jul-15 17:33N 47°33' W 122°21'0 0.0
2014-Jul-15 17:25N 47°33' W 122°21'0 0.0
2014-Jul-15 16:32N 47°33' W 122°21'0 0.0
2014-Jul-15 16:30N 47°33' W 122°21'0 0.0
2014-Jul-15 15:31N 47°33' W 122°21'0 0.0
2014-Jul-15 15:29N 47°33' W 122°21'0 0.0
2014-Jul-15 14:33N 47°33' W 122°21'0 0.0
2014-Jul-15 14:25N 47°33' W 122°21'0 0.0
2014-Jul-15 13:33N 47°33' W 122°21'0 0.0
2014-Jul-15 13:30N 47°33' W 122°21'0 0.0
2014-Jul-15 12:33N 47°33' W 122°21'0 0.0
2014-Jul-15 12:25N 47°33' W 122°21'0 0.0
2014-Jul-15 11:17N 47°33' W 122°21'0 0.0
2014-Jul-15 11:15N 47°33' W 122°21'0 0.0
2014-Jul-15 10:32N 47°33' W 122°21'0 0.0
2014-Jul-15 10:30N 47°33' W 122°21'0 0.0
2014-Jul-15 09:33N 47°33' W 122°21'0 0.0
2014-Jul-15 09:30N 47°33' W 122°21'0 0.0
2014-Jul-15 08:50N 47°33' W 122°21'0 0.0
2014-Jul-15 08:33N 47°33' W 122°21'0 0.0
2014-Jul-15 07:33N 47°33' W 122°21'0 0.1
2014-Jul-15 07:30N 47°33' W 122°21'0 0.0
2014-Jul-15 06:32N 47°33' W 122°21'0 0.0
2014-Jul-15 06:29N 47°33' W 122°21'0 0.0
2014-Jul-15 05:33N 47°33' W 122°21'0 0.0
2014-Jul-15 05:29N 47°33' W 122°21'0 0.0
2014-Jul-15 04:33N 47°33' W 122°21'0 0.1
2014-Jul-15 04:29N 47°33' W 122°21'0 0.0
2014-Jul-15 03:33N 47°33' W 122°21'0 0.0
2014-Jul-15 03:29N 47°33' W 122°21'0 0.0
2014-Jul-15 02:33N 47°33' W 122°21'0 0.0
2014-Jul-15 02:29N 47°33' W 122°21'0 0.0
2014-Jul-15 01:33N 47°33' W 122°21'0 0.0
2014-Jul-15 01:29N 47°33' W 122°21'0 0.0
2014-Jul-15 00:33N 47°33' W 122°21'0 0.0
2014-Jul-15 00:29N 47°33' W 122°21'0 0.0
2014-Jul-14 23:33N 47°33' W 122°21'0 0.1
2014-Jul-14 23:29N 47°33' W 122°21'0 0.0
2014-Jul-14 22:30N 47°33' W 122°21'0 0.0
2014-Jul-14 22:18N 47°33' W 122°21'0 0.0
2014-Jul-14 21:34N 47°33' W 122°21'0 0.0
2014-Jul-14 21:23N 47°33' W 122°21'0 0.0
2014-Jul-14 20:33N 47°33' W 122°21'0 0.0
2014-Jul-14 20:28N 47°33' W 122°21'0 0.0
2014-Jul-14 19:33N 47°33' W 122°21'0 0.0
2014-Jul-14 19:33N 47°33' W 122°21'0 0.0
2014-Jul-14 18:33N 47°33' W 122°21'0 0.0
2014-Jul-14 18:33N 47°33' W 122°21'0 0.0
2014-Jul-14 17:33N 47°33' W 122°21'0 0.1
2014-Jul-14 17:13N 47°33' W 122°21'0 0.1
2014-Jul-14 16:33N 47°33' W 122°21'0 0.0
2014-Jul-14 16:33N 47°33' W 122°21'0 0.0
2014-Jul-14 15:34N 47°33' W 122°21'0 0.0
2014-Jul-14 15:33N 47°33' W 122°21'2 1.8
2014-Jul-14 14:34N 47°35' W 122°22'0 1.2
2014-Jul-14 14:33N 47°35' W 122°22'3 2.8
2014-Jul-14 13:33N 47°37' W 122°25'0 4.3
2014-Jul-14 13:33N 47°37' W 122°25'4 3.9
2014-Jul-14 12:33N 47°40' W 122°28'0 1.7
2014-Jul-14 12:33N 47°40' W 122°28'4 4.2
2014-Jul-14 11:33N 47°44' W 122°27'0 2.3
2014-Jul-14 11:33N 47°44' W 122°27'5 4.6
2014-Jul-14 10:33N 47°48' W 122°28'0 2.8
2014-Jul-14 10:33N 47°48' W 122°28'4 4.5
2014-Jul-14 09:33N 47°53' W 122°30'5 5.1
2014-Jul-14 08:33N 47°57' W 122°34'6 5.9
2014-Jul-14 07:33N 48°02' W 122°37'6 5.7
2014-Jul-14 06:28N 48°08' W 122°39'7 5.5
2014-Jul-14 05:08N 48°13' W 122°48'5 7.0
2014-Jul-14 04:25N 48°18' W 122°48'7 7.6
2014-Jul-14 03:33N 48°24' W 122°45'  
Track history (hours):
 
Tides and Currents Weather Stations Pressure Air Temp Water Temp Dewpoint Dewpoint Depression Visibility Wind Speed Wind Dir Waves Ship Positions

M. Luther

More information available from US FCC via Universal Licensing System and Coast Guard Vessel Documentation Center.

Last reported at 2014-Jul-24 03:07 UTC. Time now 2014-Jul-25 20:41 UTC.
Position N 47°33' W 122°21'.

Length 28 m; draft 4.1 m.

Type: Tug. MMSI: 367070410.

Date/timePositionNaut miles runAvg speedWind from/ knotsBaromVisibWave heightAir tempDewpointWater temp
2014-Jul-24 03:07N 47°33' W 122°21'0 0.0
2014-Jul-24 03:03N 47°33' W 122°21'0 0.0
2014-Jul-24 02:33N 47°33' W 122°21'0 0.0
2014-Jul-24 02:33N 47°33' W 122°21'0 0.0
2014-Jul-24 01:13N 47°33' W 122°21'0 0.0
2014-Jul-24 01:11N 47°33' W 122°21'0 0.3
2014-Jul-24 00:33N 47°33' W 122°21'0 7.7
2014-Jul-24 00:30N 47°34' W 122°21'3 3.3
2014-Jul-23 23:33N 47°36' W 122°24'0 4.3
2014-Jul-23 23:30N 47°37' W 122°24'6 6.0
2014-Jul-23 22:32N 47°42' W 122°28'4 7.3
2014-Jul-23 22:02N 47°45' W 122°27'4 7.3
2014-Jul-23 21:33N 47°49' W 122°28'0 7.8
2014-Jul-23 21:33N 47°49' W 122°28'8 7.8
2014-Jul-23 20:33N 47°56' W 122°32'1 9.9
2014-Jul-23 20:28N 47°57' W 122°33'8 8.9
2014-Jul-23 19:32N 48°04' W 122°39'7 9.4
2014-Jul-23 18:47N 48°10' W 122°45'3 9.2
2014-Jul-23 18:30N 48°11' W 122°48'1 8.5
2014-Jul-23 18:26N 48°12' W 122°48'8 8.6
2014-Jul-23 17:31N 48°20' W 122°47'9 9.5
2014-Jul-23 16:33N 48°29' W 122°45'1010.2
2014-Jul-23 15:33N 48°39' W 122°44'8 8.4
2014-Jul-23 14:33N 48°46' W 122°51'9 8.7
2014-Jul-23 13:33N 48°51' W 123°02'9 8.8
2014-Jul-23 12:33N 48°56' W 123°12'8 8.5
2014-Jul-23 11:34N 49°03' W 123°21'7 7.1
2014-Jul-23 10:33N 49°08' W 123°14'7 7.1
2014-Jul-23 09:33N 49°09' W 123°03'2 1.9
2014-Jul-23 08:33N 49°09' W 123°00'0 0.0
2014-Jul-23 07:31N 49°09' W 123°00'0 0.0
2014-Jul-23 06:31N 49°09' W 123°00'0 0.0
2014-Jul-23 05:31N 49°09' W 123°00'0 0.0
2014-Jul-23 04:31N 49°09' W 123°00'0 0.0
2014-Jul-23 03:31N 49°09' W 123°00'0 0.0
2014-Jul-23 02:31N 49°09' W 123°00'0 0.0
2014-Jul-23 01:31N 49°09' W 123°00'0 0.0
2014-Jul-23 00:31N 49°09' W 123°00'0 0.0
2014-Jul-22 23:25N 49°09' W 123°00'0 0.0
2014-Jul-22 22:31N 49°09' W 123°00'0 0.0
2014-Jul-22 21:31N 49°09' W 123°00'0 0.0
2014-Jul-22 20:34N 49°09' W 123°00'0 0.0
2014-Jul-22 19:30N 49°09' W 123°00'0 0.0
2014-Jul-22 18:30N 49°09' W 123°00'0 0.0
2014-Jul-22 17:33N 49°09' W 123°00'0 0.0
2014-Jul-22 16:33N 49°09' W 123°00'0 0.0
2014-Jul-22 15:33N 49°09' W 123°00'0 0.0
2014-Jul-22 14:33N 49°09' W 123°00'0 0.0
2014-Jul-22 13:27N 49°09' W 123°00'0 0.0
2014-Jul-22 12:33N 49°09' W 123°00'0 0.0
2014-Jul-22 11:33N 49°09' W 123°00'0 0.0
2014-Jul-22 10:33N 49°09' W 123°00'0 0.0
2014-Jul-22 09:33N 49°09' W 123°00'0 0.0
2014-Jul-22 08:33N 49°09' W 123°00'0 0.0
2014-Jul-22 07:33N 49°09' W 123°00'0 0.0
2014-Jul-22 06:33N 49°09' W 123°00'0 0.0
2014-Jul-22 05:33N 49°09' W 123°00'0 0.0
2014-Jul-22 04:33N 49°09' W 123°00'0 0.0
2014-Jul-22 03:33N 49°09' W 123°00'0 0.0
2014-Jul-22 02:33N 49°09' W 123°00'0 0.0
2014-Jul-22 01:33N 49°09' W 123°00'0 0.0
2014-Jul-22 00:33N 49°09' W 123°00'0 0.0
2014-Jul-21 23:33N 49°09' W 123°00'0 0.0
2014-Jul-21 22:33N 49°09' W 123°00'0 0.0
2014-Jul-21 21:33N 49°09' W 123°00'0 0.0
2014-Jul-21 20:33N 49°09' W 123°00'0 0.0
2014-Jul-21 20:18N 49°09' W 123°00'0 0.0
2014-Jul-21 19:33N 49°09' W 123°00'0 0.0
2014-Jul-21 18:30N 49°09' W 123°00'0 0.0
2014-Jul-21 17:27N 49°09' W 123°00'0 0.0
2014-Jul-21 16:33N 49°09' W 123°00'0 0.0
2014-Jul-21 15:33N 49°09' W 123°00'0 0.0
2014-Jul-21 14:33N 49°09' W 123°00'0 0.0
2014-Jul-21 13:33N 49°09' W 123°00'0 0.0
2014-Jul-21 12:33N 49°09' W 123°00'0 0.0
2014-Jul-21 11:33N 49°09' W 123°00'0 0.0
2014-Jul-21 10:30N 49°09' W 123°00'0 0.0
2014-Jul-21 09:33N 49°09' W 123°00'0 0.0
2014-Jul-21 08:29N 49°09' W 123°00'0 0.0
2014-Jul-21 07:32N 49°09' W 123°00'0 0.0
2014-Jul-21 06:32N 49°09' W 123°00'0 0.0
2014-Jul-21 05:32N 49°09' W 123°00'0 0.0
2014-Jul-21 04:32N 49°09' W 123°00'0 0.0
2014-Jul-21 03:32N 49°09' W 123°00'0 0.0
2014-Jul-21 02:32N 49°09' W 123°00'0 0.0
2014-Jul-21 01:32N 49°09' W 123°00'0 0.0
2014-Jul-21 00:32N 49°09' W 123°00'0 0.0
2014-Jul-20 23:32N 49°09' W 123°00'0 0.0
2014-Jul-20 22:32N 49°09' W 123°00'0 0.0
2014-Jul-20 21:27N 49°09' W 123°00'0 0.0
2014-Jul-20 20:33N 49°09' W 123°00'0 0.0
2014-Jul-20 19:33N 49°09' W 123°00'0 0.2
2014-Jul-20 18:33N 49°09' W 123°01'5 5.4
2014-Jul-20 17:33N 49°06' W 123°08'5 5.4
2014-Jul-20 16:33N 49°07' W 123°16'4 4.2
2014-Jul-20 15:33N 49°03' W 123°18'7 7.4
2014-Jul-20 14:33N 48°58' W 123°10'8 8.1
2014-Jul-20 13:33N 48°53' W 123°00'8 7.6
2014-Jul-20 12:33N 48°48' W 122°52'7 7.0
2014-Jul-20 11:33N 48°43' W 122°44'5 5.5
2014-Jul-20 10:33N 48°38' W 122°44'5 4.8
2014-Jul-20 09:33N 48°33' W 122°45'6 6.4
2014-Jul-20 08:33N 48°27' W 122°44'8 7.4
2014-Jul-20 07:32N 48°19' W 122°46'14 5.7
2014-Jul-20 05:08N 48°06' W 122°39'4 6.9
2014-Jul-20 04:33N 48°02' W 122°37'4 6.6
2014-Jul-20 03:57N 47°59' W 122°35'3 7.2
2014-Jul-20 03:33N 47°57' W 122°32'2 7.8
2014-Jul-20 03:22N 47°56' W 122°30'6 7.6
2014-Jul-20 02:33N 47°50' W 122°27'0 7.3
2014-Jul-20 02:32N 47°50' W 122°27'8 8.1
2014-Jul-20 01:33N 47°42' W 122°26'0 7.2
2014-Jul-20 01:32N 47°42' W 122°26'7 6.9
2014-Jul-20 00:33N 47°36' W 122°22'0 3.7
2014-Jul-20 00:32N 47°36' W 122°22'3 2.7
2014-Jul-19 23:33N 47°33' W 122°21'0 0.0
2014-Jul-19 23:32N 47°33' W 122°21'  
2014-Jul-17 17:59N 47°33' W 122°21'2 4.5
2014-Jul-17 17:33N 47°35' W 122°22'0 5.1
2014-Jul-17 17:30N 47°35' W 122°21'0 0.1
2014-Jul-17 16:30N 47°35' W 122°21'0 0.0
2014-Jul-17 16:30N 47°35' W 122°21'2 2.1
2014-Jul-17 15:34N 47°33' W 122°21'0 1.1
2014-Jul-17 15:29N 47°33' W 122°21'0 0.0
2014-Jul-17 14:20N 47°33' W 122°21'0 0.0
2014-Jul-17 13:19N 47°33' W 122°21'0 0.0
2014-Jul-17 11:25N 47°33' W 122°21'0 0.0
2014-Jul-17 10:25N 47°33' W 122°21'0 0.0
2014-Jul-17 09:44N 47°33' W 122°21'0 0.0
2014-Jul-17 09:32N 47°33' W 122°21'0 0.0
2014-Jul-17 09:29N 47°33' W 122°21'0 0.0
2014-Jul-17 08:31N 47°33' W 122°21'0 0.0
2014-Jul-17 08:13N 47°33' W 122°21'0 0.0
2014-Jul-17 07:31N 47°33' W 122°21'0 0.0
2014-Jul-17 06:58N 47°33' W 122°21'0 0.0
2014-Jul-17 06:31N 47°33' W 122°21'0 0.0
2014-Jul-17 06:28N 47°33' W 122°21'0 0.0
2014-Jul-17 05:43N 47°33' W 122°21'0 0.0
2014-Jul-17 05:31N 47°33' W 122°21'0 0.0
2014-Jul-17 04:31N 47°33' W 122°21'0 0.0
2014-Jul-17 04:13N 47°33' W 122°21'0 0.0
2014-Jul-17 03:31N 47°33' W 122°21'0 0.0
2014-Jul-17 03:28N 47°33' W 122°21'0 0.0
2014-Jul-17 02:31N 47°33' W 122°21'0 0.0
2014-Jul-17 02:28N 47°33' W 122°21'0 0.0
2014-Jul-17 01:31N 47°33' W 122°21'0 0.0
2014-Jul-17 01:28N 47°33' W 122°21'0 0.0
2014-Jul-17 00:28N 47°33' W 122°21'0 0.0
2014-Jul-17 00:28N 47°33' W 122°21'0 0.0
2014-Jul-16 23:22N 47°33' W 122°21'0 0.0
2014-Jul-16 23:13N 47°33' W 122°21'0 0.0
2014-Jul-16 22:31N 47°33' W 122°21'0 0.0
2014-Jul-16 22:28N 47°33' W 122°21'0 0.0
2014-Jul-16 21:28N 47°33' W 122°21'0 0.0
2014-Jul-16 21:28N 47°33' W 122°21'0 0.0
2014-Jul-16 20:31N 47°33' W 122°21'0 0.0
2014-Jul-16 20:08N 47°33' W 122°21'0 0.1
2014-Jul-16 19:28N 47°33' W 122°21'0 0.0
2014-Jul-16 19:12N 47°33' W 122°21'0 0.0
2014-Jul-16 18:32N 47°33' W 122°21'0 0.0
2014-Jul-16 18:26N 47°33' W 122°21'0 0.0
2014-Jul-16 17:26N 47°33' W 122°21'0 0.0
2014-Jul-16 17:12N 47°33' W 122°21'0 0.0
2014-Jul-16 16:33N 47°33' W 122°21'0 0.0
2014-Jul-16 16:23N 47°33' W 122°21'0 0.0
2014-Jul-16 15:33N 47°33' W 122°21'0 0.0
2014-Jul-16 15:32N 47°33' W 122°21'0 0.0
2014-Jul-16 14:33N 47°33' W 122°21'0 0.5
2014-Jul-16 14:32N 47°33' W 122°21'0 0.0
2014-Jul-16 13:33N 47°33' W 122°21'0 0.0
2014-Jul-16 13:32N 47°33' W 122°21'0 0.0
2014-Jul-16 12:33N 47°33' W 122°21'0 0.0
2014-Jul-16 12:32N 47°33' W 122°21'0 0.0
2014-Jul-16 11:33N 47°33' W 122°21'0 0.0
2014-Jul-16 11:32N 47°33' W 122°21'0 0.0
2014-Jul-16 10:33N 47°33' W 122°21'0 0.0
2014-Jul-16 10:32N 47°33' W 122°21'0 0.0
2014-Jul-16 09:33N 47°33' W 122°21'0 0.0
2014-Jul-16 09:32N 47°33' W 122°21'0 0.0
2014-Jul-16 08:33N 47°33' W 122°21'0 0.3
2014-Jul-16 08:26N 47°33' W 122°21'0 0.0
2014-Jul-16 07:33N 47°33' W 122°21'0 0.0
2014-Jul-16 07:32N 47°33' W 122°21'0 0.0
2014-Jul-16 06:33N 47°33' W 122°21'0 0.0
2014-Jul-16 06:32N 47°33' W 122°21'0 0.0
2014-Jul-16 05:57N 47°33' W 122°21'0 0.0
2014-Jul-16 05:33N 47°33' W 122°21'0 0.0
2014-Jul-16 04:33N 47°33' W 122°21'0 0.0
2014-Jul-16 04:31N 47°33' W 122°21'0 0.0
2014-Jul-16 03:33N 47°33' W 122°21'0 0.0
2014-Jul-16 03:31N 47°33' W 122°21'0 0.0
2014-Jul-16 02:33N 47°33' W 122°21'0 0.1
2014-Jul-16 02:31N 47°33' W 122°21'0 0.0
2014-Jul-16 01:33N 47°33' W 122°21'0 0.0
2014-Jul-16 01:31N 47°33' W 122°21'0 0.0
2014-Jul-16 00:33N 47°33' W 122°21'0 0.0
2014-Jul-16 00:31N 47°33' W 122°21'0 0.0
2014-Jul-15 23:32N 47°33' W 122°21'0 0.0
2014-Jul-15 23:30N 47°33' W 122°21'0 0.0
2014-Jul-15 21:32N 47°33' W 122°21'0 0.0
2014-Jul-15 20:32N 47°33' W 122°21'0 0.0
2014-Jul-15 20:31N 47°33' W 122°21'0 0.0
2014-Jul-15 19:33N 47°33' W 122°21'0 0.0
2014-Jul-15 18:31N 47°33' W 122°21'0 0.0
2014-Jul-15 18:10N 47°33' W 122°21'0 0.0
2014-Jul-15 17:33N 47°33' W 122°21'0 0.0
2014-Jul-15 17:25N 47°33' W 122°21'0 0.0
2014-Jul-15 16:32N 47°33' W 122°21'0 0.0
2014-Jul-15 16:30N 47°33' W 122°21'0 0.0
2014-Jul-15 15:31N 47°33' W 122°21'0 0.0
2014-Jul-15 15:29N 47°33' W 122°21'0 0.0
2014-Jul-15 14:33N 47°33' W 122°21'0 0.0
2014-Jul-15 14:25N 47°33' W 122°21'0 0.0
2014-Jul-15 13:33N 47°33' W 122°21'0 0.0
2014-Jul-15 13:30N 47°33' W 122°21'0 0.0
2014-Jul-15 12:33N 47°33' W 122°21'0 0.0
2014-Jul-15 12:25N 47°33' W 122°21'0 0.0
2014-Jul-15 11:17N 47°33' W 122°21'0 0.0
2014-Jul-15 11:15N 47°33' W 122°21'0 0.0
2014-Jul-15 10:32N 47°33' W 122°21'0 0.0
2014-Jul-15 10:30N 47°33' W 122°21'0 0.0
2014-Jul-15 09:33N 47°33' W 122°21'0 0.0
2014-Jul-15 09:30N 47°33' W 122°21'0 0.0
2014-Jul-15 08:50N 47°33' W 122°21'0 0.0
2014-Jul-15 08:33N 47°33' W 122°21'0 0.0
2014-Jul-15 07:33N 47°33' W 122°21'0 0.1
2014-Jul-15 07:30N 47°33' W 122°21'0 0.0
2014-Jul-15 06:32N 47°33' W 122°21'0 0.0
2014-Jul-15 06:29N 47°33' W 122°21'0 0.0
2014-Jul-15 05:33N 47°33' W 122°21'0 0.0
2014-Jul-15 05:29N 47°33' W 122°21'0 0.0
2014-Jul-15 04:33N 47°33' W 122°21'0 0.1
2014-Jul-15 04:29N 47°33' W 122°21'0 0.0
2014-Jul-15 03:33N 47°33' W 122°21'0 0.0
2014-Jul-15 03:29N 47°33' W 122°21'0 0.0
2014-Jul-15 02:33N 47°33' W 122°21'0 0.0
2014-Jul-15 02:29N 47°33' W 122°21'0 0.0
2014-Jul-15 01:33N 47°33' W 122°21'0 0.0
2014-Jul-15 01:29N 47°33' W 122°21'0 0.0
2014-Jul-15 00:33N 47°33' W 122°21'0 0.0
2014-Jul-15 00:29N 47°33' W 122°21'0 0.0
2014-Jul-14 23:33N 47°33' W 122°21'0 0.1
2014-Jul-14 23:29N 47°33' W 122°21'0 0.0
2014-Jul-14 22:30N 47°33' W 122°21'0 0.0
2014-Jul-14 22:18N 47°33' W 122°21'0 0.0
2014-Jul-14 21:34N 47°33' W 122°21'0 0.0
2014-Jul-14 21:23N 47°33' W 122°21'0 0.0
2014-Jul-14 20:33N 47°33' W 122°21'0 0.0
2014-Jul-14 20:28N 47°33' W 122°21'0 0.0
2014-Jul-14 19:33N 47°33' W 122°21'0 0.0
2014-Jul-14 19:33N 47°33' W 122°21'0 0.0
2014-Jul-14 18:33N 47°33' W 122°21'0 0.0
2014-Jul-14 18:33N 47°33' W 122°21'0 0.0
2014-Jul-14 17:33N 47°33' W 122°21'0 0.1
2014-Jul-14 17:13N 47°33' W 122°21'0 0.1
2014-Jul-14 16:33N 47°33' W 122°21'0 0.0
2014-Jul-14 16:33N 47°33' W 122°21'0 0.0
2014-Jul-14 15:34N 47°33' W 122°21'0 0.0
2014-Jul-14 15:33N 47°33' W 122°21'2 1.8
2014-Jul-14 14:34N 47°35' W 122°22'0 1.2
2014-Jul-14 14:33N 47°35' W 122°22'3 2.8
2014-Jul-14 13:33N 47°37' W 122°25'0 4.3
2014-Jul-14 13:33N 47°37' W 122°25'4 3.9
2014-Jul-14 12:33N 47°40' W 122°28'0 1.7
2014-Jul-14 12:33N 47°40' W 122°28'4 4.2
2014-Jul-14 11:33N 47°44' W 122°27'0 2.3
2014-Jul-14 11:33N 47°44' W 122°27'5 4.6
2014-Jul-14 10:33N 47°48' W 122°28'0 2.8
2014-Jul-14 10:33N 47°48' W 122°28'4 4.5
2014-Jul-14 09:33N 47°53' W 122°30'5 5.1
2014-Jul-14 08:33N 47°57' W 122°34'6 5.9
2014-Jul-14 07:33N 48°02' W 122°37'6 5.7
2014-Jul-14 06:28N 48°08' W 122°39'7 5.5
2014-Jul-14 05:08N 48°13' W 122°48'5 7.0
2014-Jul-14 04:25N 48°18' W 122°48'7 7.6
2014-Jul-14 03:33N 48°24' W 122°45'  

Dump ship's entire track history